TimeCDT,TemperatureF,Dew PointF,Humidity,Sea Level PressureIn,VisibilityMPH,Wind Direction,Wind SpeedMPH,Gust SpeedMPH,PrecipitationIn,Events,Conditions,WindDirDegrees,DateUTC
12:13 AM,50.0,48.0,93,29.99,3.0,North,9.2,-,0.07,Rain-Thunderstorm,Rain,10,2013-04-03 05:13:00
12:26 AM,51.1,48.9,92,29.98,5.0,NNE,13.8,-,0.08,Rain-Thunderstorm,Thunderstorms and Rain,20,2013-04-03 05:26:00
12:53 AM,51.1,48.9,92,29.95,3.0,NNE,15.0,24.2,0.18,Rain-Thunderstorm,Heavy Thunderstorms and Rain,20,2013-04-03 05:53:00
1:06 AM,51.1,48.0,89,29.95,5.0,NNE,16.1,25.3,0.02,Rain-Thunderstorm,Rain,20,2013-04-03 06:06:00
1:17 AM,51.1,48.9,92,29.97,8.0,North,10.4,25.3,0.03,Rain,Light Rain,10,2013-04-03 06:17:00
1:32 AM,51.1,48.9,92,29.97,10.0,North,13.8,-,0.03,,Mostly Cloudy,10,2013-04-03 06:32:00
1:39 AM,52.0,50.0,93,29.97,10.0,NNE,13.8,-,0.03,,Mostly Cloudy,20,2013-04-03 06:39:00
1:53 AM,53.1,51.1,93,29.91,10.0,NNE,16.1,-,0.03,,Partly Cloudy,30,2013-04-03 06:53:00
2:53 AM,54.0,51.1,90,29.86,10.0,NE,16.1,26.5,N/A,,Clear,40,2013-04-03 07:53:00
3:01 AM,54.0,51.1,90,29.89,10.0,NNE,16.1,24.2,N/A,,Partly Cloudy,30,2013-04-03 08:01:00
3:34 AM,53.1,51.1,93,29.89,10.0,NNE,12.7,19.6,N/A,,Mostly Cloudy,30,2013-04-03 08:34:00
3:53 AM,53.1,51.1,93,29.90,10.0,NW,9.2,-,N/A,,Overcast,320,2013-04-03 08:53:00
4:08 AM,53.1,51.1,93,29.93,10.0,NNW,5.8,-,N/A,,Overcast,340,2013-04-03 09:08:00
4:27 AM,53.1,51.1,93,29.95,10.0,North,10.4,-,N/A,,Overcast,360,2013-04-03 09:27:00
4:53 AM,54.0,51.1,90,29.94,10.0,North,5.8,-,N/A,,Overcast,350,2013-04-03 09:53:00
5:01 AM,54.0,51.1,90,29.97,10.0,North,8.1,-,N/A,,Overcast,350,2013-04-03 10:01:00
5:27 AM,54.0,51.1,90,29.97,10.0,North,4.6,-,N/A,,Overcast,360,2013-04-03 10:27:00
5:38 AM,52.0,48.9,89,29.98,10.0,NW,10.4,-,N/A,,Overcast,320,2013-04-03 10:38:00
5:53 AM,51.1,48.0,89,29.96,10.0,NW,16.1,-,N/A,,Overcast,320,2013-04-03 10:53:00
6:20 AM,50.0,46.9,89,29.99,10.0,NNW,16.1,-,N/A,,Overcast,330,2013-04-03 11:20:00
6:53 AM,48.9,46.0,90,29.96,10.0,North,11.5,20.7,N/A,,Overcast,350,2013-04-03 11:53:00
7:53 AM,50.0,48.0,93,30.00,10.0,NNW,6.9,-,N/A,,Overcast,330,2013-04-03 12:53:00
8:53 AM,50.0,46.9,89,30.04,5.0,North,8.1,-,N/A,,Overcast,10,2013-04-03 13:53:00
9:08 AM,50.0,46.9,89,30.06,4.0,North,11.5,-,N/A,,Overcast,360,2013-04-03 14:08:00
9:22 AM,48.9,46.0,90,30.05,2.5,NNE,13.8,-,N/A,,Overcast,20,2013-04-03 14:22:00
9:53 AM,48.0,46.0,93,30.08,2.5,NW,10.4,-,N/A,,Overcast,320,2013-04-03 14:53:00
10:06 AM,48.0,46.0,93,30.08,3.0,North,5.8,-,0.00,Rain,Light Rain,10,2013-04-03 15:06:00
10:14 AM,48.0,46.9,96,30.08,2.0,NNW,8.1,-,0.00,Rain,Light Rain,340,2013-04-03 15:14:00
10:24 AM,48.9,46.9,93,30.07,1.8,NNE,6.9,-,0.00,Rain,Light Rain,20,2013-04-03 15:24:00
10:44 AM,48.0,46.0,93,30.08,3.0,North,10.4,-,0.01,Rain,Light Rain,350,2013-04-03 15:44:00
10:53 AM,48.0,46.0,93,30.06,4.0,NNW,10.4,-,0.01,Rain,Light Rain,340,2013-04-03 15:53:00
11:06 AM,48.0,46.0,93,30.06,2.5,North,9.2,-,0.00,,Overcast,360,2013-04-03 16:06:00
11:22 AM,48.9,46.9,93,30.07,1.5,NNW,9.2,-,0.00,,Overcast,340,2013-04-03 16:22:00
11:38 AM,48.9,46.9,93,30.07,2.5,North,9.2,-,0.00,,Overcast,350,2013-04-03 16:38:00
11:53 AM,48.9,46.9,93,30.06,4.0,NNW,11.5,-,0.00,,Overcast,340,2013-04-03 16:53:00
12:53 PM,48.9,46.9,93,30.06,8.0,North,9.2,-,0.00,Rain,Light Rain,360,2013-04-03 17:53:00
1:53 PM,48.9,46.9,93,30.03,10.0,NNW,9.2,18.4,0.01,,Overcast,330,2013-04-03 18:53:00
2:13 PM,48.9,46.0,90,30.06,10.0,NNW,9.2,-,0.00,Rain,Light Rain,340,2013-04-03 19:13:00
2:35 PM,48.9,46.0,90,30.09,7.0,NW,9.2,-,0.00,Rain-Thunderstorm,Light Thunderstorms and Rain,320,2013-04-03 19:35:00
2:50 PM,48.2,46.4,93,30.06,4.0,NNW,9.2,-,0.00,Rain,Light Rain,340,2013-04-03 19:50:00
2:53 PM,48.9,46.0,90,30.04,4.0,NNW,10.4,-,0.00,Rain,Light Rain,330,2013-04-03 19:53:00
3:12 PM,48.0,46.0,93,30.08,7.0,NW,15.0,25.3,0.01,Rain,Light Rain,310,2013-04-03 20:12:00
3:53 PM,48.0,46.0,93,30.05,10.0,NNW,12.7,-,0.01,,Overcast,330,2013-04-03 20:53:00
4:06 PM,48.0,46.0,93,30.05,7.0,NNW,17.3,-,N/A,,Overcast,330,2013-04-03 21:06:00
4:34 PM,48.9,46.0,90,30.06,8.0,NNW,13.8,21.9,0.00,Rain,Light Rain,330,2013-04-03 21:34:00
4:53 PM,48.9,46.0,90,30.05,10.0,NNW,13.8,20.7,0.00,Rain,Light Rain,340,2013-04-03 21:53:00
5:41 PM,48.9,46.0,90,30.08,10.0,NW,12.7,-,0.00,,Overcast,320,2013-04-03 22:41:00
5:53 PM,48.9,45.0,86,30.07,10.0,NNW,9.2,-,0.00,,Overcast,340,2013-04-03 22:53:00
6:53 PM,48.0,46.0,93,30.09,3.0,NNW,9.2,-,N/A,,Overcast,340,2013-04-03 23:53:00
7:12 PM,48.9,46.0,90,30.09,3.0,NNW,9.2,-,N/A,,Overcast,330,2013-04-04 00:12:00
7:25 PM,48.0,46.0,93,30.10,4.0,NNW,9.2,-,N/A,,Overcast,330,2013-04-04 00:25:00
7:53 PM,48.0,45.0,89,30.10,5.0,NNW,8.1,-,N/A,,Overcast,340,2013-04-04 00:53:00
8:46 PM,46.9,44.1,90,30.12,10.0,NNW,9.2,-,N/A,,Overcast,340,2013-04-04 01:46:00
8:53 PM,46.9,44.1,90,30.12,10.0,NNW,8.1,-,N/A,,Overcast,340,2013-04-04 01:53:00
9:13 PM,46.9,44.1,90,30.14,10.0,NNW,9.2,-,N/A,,Overcast,340,2013-04-04 02:13:00
9:31 PM,46.9,44.1,90,30.14,10.0,North,8.1,-,N/A,,Overcast,350,2013-04-04 02:31:00
9:53 PM,46.9,43.0,86,30.15,10.0,NNW,8.1,-,N/A,,Overcast,330,2013-04-04 02:53:00
10:53 PM,46.9,44.1,90,30.16,10.0,NW,8.1,-,N/A,,Overcast,320,2013-04-04 03:53:00
11:25 PM,46.9,43.0,86,30.17,8.0,NNW,8.1,-,N/A,,Overcast,330,2013-04-04 04:25:00
11:53 PM,46.9,43.0,86,30.17,10.0,NW,9.2,-,N/A,,Overcast,320,2013-04-04 04:53:00